COSMO-SKYMED 4

Last updated on Sat Dec 13 2025 00:02:31 GMT+0000 (Coordinated Universal Time)

1 37216U 10060A 25346.30462888 .00000562 00000+0 77064-4 0 9995 2 37216 97.8809 167.6344 0001382 77.1687 282.9681 14.82166989816884
UTC large
Height (km)
Speed (km/s)
/
Latitude / Longitude
Inclination (degrees)
Orbital Period (minutes)
Azimuth
Elevation
Range (km)
Doppler Factor

Next 0 passes for location: London (51.5072 / 0.1276)

Sorry there are no passes over London.